Miscellaneous Local Product
Issued by NWS North Platte, NE

Home | Current Version | Previous Version | Text Only | Print | Product List | Glossary On
Versions: 1 2 3 4 5 6 7 8 9 10 11 12 13 14 15 16 17 18 19 20 21 22 23 24 25 26 27 28 29 30 31 32 33 34 35 36 37 38 39 40 41 42 43 44 45 46 47 48 49 50
639
AXUS43 KLBF 080910
MISLBF


WESTERN AND NORTH CENTRAL NEBRASKA HOURLY WEATHER ROUNDUP
NATIONAL WEATHER SERVICE NORTH PLATTE NE
300 AM CST MON FEB 08 2016

NOTE: "FAIR" INDICATES FEW OR NO CLOUDS BELOW 12,000 FEET WITH NO
SIGNIFICANT WEATHER AND/OR OBSTRUCTIONS TO VISIBILITY.

NOTE: STATIONS NOT REPORTING VARIABLES SUCH AS SKY/WEATHER OR
PRESSURE ARE PROVIDED BY THE NEBRASKA DEPARTMENT OF
ROADS...RAWS...AND APRS NETWORKS...AND ARE NOT UNDER
NATIONAL WEATHER SERVICE QUALITY CONTROL.

...OBSERVATIONS IN AND NEAR THE EASTERN PANHANDLE OF NEBRASKA...

CITY           SKY/WX    TMP DP  RH WIND       PRES   REMARKS
PINE RIDGE     CLEAR     20   9  62 NW5       30.31S WCI  13
CHADRON        CLOUDY    25  13  60 W18       30.33F WCI  11
ALLIANCE       CLOUDY    20  10  65 NW17      30.29S WCI   5
SIDNEY         CLEAR     25  10  53 NW26G37   30.31F WCI   9
BIG SPRINGS      N/A     26  16  65 NW12        N/A  WCI  16
$$

...OBSERVATIONS IN NORTH CENTRAL NEBRASKA...

CITY           SKY/WX    TMP DP  RH WIND       PRES   REMARKS
VALENTINE      CLEAR     28  16  60 NW25G36   30.20R WCI  13
THEDFORD       PTCLDY    29  16  59 NW24G30   30.20S WCI  15
AINSWORTH      CLEAR     29  17  58 NW35G44   30.16S WCI  13
O`NEILL        CLOUDY    31  19  61 NW33G45   30.10R WCI  15
ORD            CLEAR     30  17  58 NW26G40   30.11R WCI  16
BROKEN BOW     CLEAR     30  15  53 NW32G43   30.14F WCI  14
BUTTE            N/A     29  19  66 NW32G41     N/A  WCI  13
CHAMBERS         N/A     29  14  53 W25         N/A  WCI  15
EWING            N/A     31  20  64 NW17G30     N/A  WCI  20
$$

...OBSERVATIONS IN SOUTHWEST NEBRASKA AND FAR NORTHEAST COLORADO...

CITY           SKY/WX    TMP DP  RH WIND       PRES   REMARKS
WRAY           FAIR      28  12  52 NW22      30.34S WCI  13
HOLYOKE        FAIR      28  12  50 NW20G29   30.32R WCI  15
IMPERIAL       CLEAR     26  12  55 NW22G30   30.29R WCI  12
OGALLALA       CLEAR     25  12  59 NW21G26   30.29R WCI  10
NORTH PLATTE   CLEAR     27  13  55 NW22G28   30.23R WCI  13
MCCOOK         CLEAR     24  14  65 NW16G26   30.26R WCI  11
LEXINGTON      CLEAR     29  15  55 NW26G33   30.19S WCI  14
PAXTON           N/A     25  17  71 W10         N/A  WCI  15
STAPLETON        N/A     26  15  62 W3G20       N/A
GOTHENBURG       N/A     30  15  53 NW17        N/A  WCI  18
CALLAWAY         N/A     28  17  62 NW22        N/A  WCI  14
$$

...OBSERVATIONS IN CENTRAL LINCOLN COUNTY AREA...

CITY           SKY/WX    TMP DP  RH WIND       PRES   REMARKS
N.P. AIRPORT   CLEAR     27  13  55 NW22G28   30.23R WCI  13
N.P. DOWNTOWN    N/A     29  15  56 NW13G20     N/A  WCI  19
N.P. SOUTHEAST   N/A     29  14  53 NW12G20     N/A  WCI  19
N.P. HILLCREST   N/A     28  15  58 NW21G31     N/A  WCI  15
$$

...SOME OBSERVATIONS FROM AROUND THE REGION...

CITY           SKY/WX    TMP DP  RH WIND       PRES   REMARKS
DENVER         CLOUDY    22  14  71 S10       30.36S WCI  11
LARAMIE          N/A     27  16  63 N8        30.34R WCI  19
CHEYENNE       CLOUDY    21  13  71 N7        30.32S WCI  12
SCOTTSBLUFF    CLEAR     24  11  57 NW18      30.37S WCI  10
RAPID CITY     CLEAR     28  10  46 NW23G33   30.28F WCI  14
BISMARCK       CLEAR     28  18  66 NW22G33   30.19F WCI  14
PIERRE         CLEAR     28  17  63 NW28G40   30.18R WCI  13
WINNER         FAIR      29  17  61 NW29G36   30.17R WCI  14
SIOUX FALLS    CLOUDY    23  15  71 N31G40    29.99R WCI   5
OMAHA          CLOUDY    30  21  69 NW26G33   29.98R WCI  16
GRAND ISLAND   MOCLDY    31  18  58 NW29G44   30.11S WCI  16
KANSAS CITY    FLURRIES  33  23  66 NW25G32   29.99S WCI  20
WICHITA        PTCLDY    37  17  44 NW22G31   30.20S WCI  26
OKLAHOMA CITY  PTCLDY    38  17  42 NW18      30.27S WCI  28
LIBERAL        CLEAR     25  12  58 W10       30.37S WCI  15
HAYS           CLEAR     28  12  50 NW20G25   30.25S WCI  15
GOODLAND       CLEAR     25  10  53 NW24G31   30.31S WCI   9
$$




USA.gov is the U.S. government's official web portal to all federal, state and local government web resources and services.